{"data":{"norad_id":47346,"epoch":"2026-09-20T21:58:14.681280Z","epoch_age_seconds":43481,"freshness":"FRESH","line1":"1 47346U 21004A   26263.91544770  .00000036  00000+0  73091-4 0  9999","line2":"2 47346  90.1287 242.9994 0004079 118.3482 241.8062 13.16659031272198","mean_motion":13.16659031,"eccentricity":0.0004079,"inclination_deg":90.1287,"raan_deg":242.9994,"arg_perigee_deg":118.3482,"mean_anomaly_deg":241.8062,"bstar":7.3091e-5,"rev_number":27219,"period_min":109.36772285732,"perigee_km":1194.4180916428,"apogee_km":1200.5983029947,"semimajor_km":7575.6451973187,"source":"CELESTRAK","updated_at":"2026-09-21T09:00:07.514230Z"}}